Location: Baix
(44.7118°N, 4.7648°E)
Time: 16:28:36
(UTC+00:00)

Meteor 2-5 Rocket - Pass Details

Date: 07 August 2020
Orbit: 832 x 912 km, 81.2° (Epoch: 23 September)

Event Time Altitude Azimuth Distance (km) Brightness Sun altitude
Rises 02:01:32 0° 346° (NNW) 3,451 7.5 -21.7°
Reaches altitude 10° 02:04:01 10° 344° (NNW) 2,499 6.6 -21.4°
Maximum altitude 02:09:37 67° 264° (W) 913 3.6 -20.9°
Enters shadow 02:11:40 39° 195° (SSW) 1,249 4.1 -20.6°
